Location: Poughquag
(41.6090°N, 73.6820°W)
Time: 18:50:44
(UTC-04:00)

Vanguard 1 - Pass Details

Date: 30 May 2020
Orbit: 650 x 3832 km, 34.2° (Epoch: 19 September)

Event Time Altitude Azimuth Distance (km) Brightness Sun altitude
Exits shadow 03:12:59 - 169° (SSE) 5,253 13.4 -18.7°
Reaches altitude 10° 03:16:57 10° 153° (SSE) 5,042 13.4 -18.3°
Maximum altitude 03:24:31 15° 123° (ESE) 5,304 13.8 -17.4°
Drops below altitude 10° 03:33:47 10° 95° (E) 6,429 14.7 -16.4°
Sets 03:42:52 0° 78° (ENE) 7,854 15.6 -15.3°
